El Paso, TX

8:32 PM MDT on May 22, 2017 (GMT -0600)
El Paso International

Weather History for KELP - February, 2014

Change the Weather History Date:

Wednesday, February 12, 2014

  Actual Average Record
Temperature  
Mean Temperature 49 °F 50 °F  
Max Temperature 66 °F 63 °F 79 °F (1962)
Min Temperature 31 °F 37 °F 5 °F (1899)
Degree Days  
Heating Degree Days 16 15  
Month to date heating degree days 183 200  
Since 1 July heating degree days 1739 1885  
Cooling Degree Days 0 0  
Month to date cooling degree days 0 0  
Year to date cooling degree days 0 0  
Moisture  
Dew Point 19 °F    
Average Humidity 36    
Maximum Humidity 59    
Minimum Humidity 13    
Precipitation  
Precipitation 0.00 in 0.01 in 0.39 in (1968)
Month to date precipitation T 0.21  
Year to date precipitation T 0.61  
Snow  
Snow 0.00 in - - ()
Month to date snowfall 0.0  
Since 1 July snowfall T  
Snow Depth 0.00 in    
Sea Level Pressure  
Sea Level Pressure 30.05 in    
Wind  
Wind Speed 6 mph (SSE)    
Max Wind Speed 14 mph    
Max Gust Speed 17 mph    
Visibility 10 miles    
Events      
T = Trace of Precipitation, MM = Missing Value Source: NWS Daily Summary

Daily Weather History Graph

Daily Weather History Graph

Search for Another Location

Airport or City:

Trip Planner

Search our weather history database for the weather conditions in past years. The results will help you decide how hot, cold, wet, or windy it might be!

Date:

Astronomy

Feb. 12, 2014 Rise Set
Actual Time 6:50 AM MST 5:49 PM MST
Civil Twilight 6:25 AM MST 6:14 PM MST
Nautical Twilight 5:56 AM MST 6:43 PM MST
Astronomical Twilight 5:28 AM MST 7:11 PM MST
Moon 4:08 PM MST (2/12) 5:05 AM MST (2/12)
Length of Visible Light 11h 49m
Length of Day
10h 59m
Waxing Gibbous, 96% of the Moon is Illuminated
Feb 12
Waxing Gibbous
Feb 14
Full
Feb 22
Last Quarter
Mar 1
New
Mar 8
First Quarter

Hourly Weather History & Observations

Time (MST) Temp. Windchill Dew Point Humidity Pressure Visibility Wind Dir Wind Speed Gust Speed Precip Events Conditions
12:51 AM 41.0 °F 38.0 °F 23.0 °F 49% 30.04 in 10.0 mi South 4.6 mph - N/A   Scattered Clouds
1:51 AM 37.9 °F 35.5 °F 21.9 °F 53% 30.06 in 10.0 mi SE 3.5 mph - N/A   Partly Cloudy
2:51 AM 37.9 °F 32.7 °F 21.9 °F 53% 30.04 in 10.0 mi SW 6.9 mph - N/A   Partly Cloudy
3:51 AM 37.9 °F 34.4 °F 23.0 °F 55% 30.06 in 10.0 mi SW 4.6 mph - N/A   Partly Cloudy
4:51 AM 37.0 °F - 21.9 °F 54% 30.08 in 10.0 mi Calm Calm - N/A   Scattered Clouds
5:51 AM 32.0 °F 28.7 °F 19.9 °F 61% 30.12 in 10.0 mi ENE 3.5 mph - N/A   Scattered Clouds
6:51 AM 32.0 °F 24.8 °F 19.0 °F 59% 30.15 in 10.0 mi North 8.1 mph - N/A   Scattered Clouds
7:51 AM 34.0 °F 25.5 °F 19.9 °F 56% 30.18 in 10.0 mi North 11.5 mph - N/A   Scattered Clouds
8:51 AM 42.1 °F 37.1 °F 23.0 °F 47% 30.17 in 10.0 mi North 8.1 mph - N/A   Scattered Clouds
9:51 AM 46.0 °F 41.4 °F 23.0 °F 40% 30.19 in 10.0 mi East 9.2 mph - N/A   Scattered Clouds
10:51 AM 53.1 °F - 24.1 °F 32% 30.16 in 10.0 mi North 3.5 mph - N/A   Partly Cloudy
11:51 AM 57.9 °F - 23.0 °F 26% 30.11 in 10.0 mi North 8.1 mph - N/A   Scattered Clouds
12:51 PM 61.0 °F - 19.0 °F 20% 30.06 in 10.0 mi North 8.1 mph - N/A   Scattered Clouds
1:51 PM 62.1 °F - 14.0 °F 15% 30.03 in 10.0 mi Calm Calm - N/A   Scattered Clouds
2:51 PM 63.0 °F - 15.1 °F 16% 29.99 in 10.0 mi Calm Calm - N/A   Scattered Clouds
3:51 PM 64.9 °F - 14.0 °F 14% 29.99 in 10.0 mi Variable 5.8 mph - N/A   Scattered Clouds
4:51 PM 64.0 °F - 17.1 °F 16% 29.98 in 10.0 mi WSW 9.2 mph - N/A   Scattered Clouds
5:51 PM 62.1 °F - 16.0 °F 17% 29.99 in 10.0 mi South 6.9 mph - N/A   Scattered Clouds
6:51 PM 59.0 °F - 17.1 °F 20% 30.00 in 10.0 mi South 5.8 mph - N/A   Scattered Clouds
7:51 PM 57.0 °F - 15.1 °F 19% 29.99 in 10.0 mi South 4.6 mph - N/A   Scattered Clouds
8:51 PM 55.9 °F - 15.1 °F 20% 29.99 in 10.0 mi South 9.2 mph - N/A   Mostly Cloudy
9:51 PM 55.9 °F - 14.0 °F 19% 29.96 in 10.0 mi SSE 11.5 mph - N/A   Mostly Cloudy
10:51 PM 54.0 °F - 14.0 °F 21% 29.95 in 10.0 mi SSE 8.1 mph - N/A   Scattered Clouds
11:51 PM 53.1 °F - 14.0 °F 21% 29.94 in 10.0 mi SSE 5.8 mph - N/A   Scattered Clouds